Time,TemperatureF,DewpointF,PressureIn,WindDirection,WindDirectionDegrees,WindSpeedMPH,WindSpeedGustMPH,Humidity,HourlyPrecipIn,Conditions,Clouds,dailyrainin,SoftwareType,DateUTC
2013-09-16 00:05:00,60.6,58.9,29.78,South,180,1.0,1.0,94,0.00,,,0.00,Wunderground v.1.15,2013-09-16 07:05:00,
2013-09-16 00:15:00,60.6,58.6,29.78,South,170,1.0,1.0,93,0.00,,,0.00,Wunderground v.1.15,2013-09-16 07:15:00,
2013-09-16 00:25:00,60.6,58.6,29.78,South,180,1.0,1.0,93,0.00,,,0.00,Wunderground v.1.15,2013-09-16 07:25:00,
2013-09-16 00:35:00,60.6,58.6,29.78,SSE,160,1.0,4.0,93,0.00,,,0.00,Wunderground v.1.15,2013-09-16 07:35:00,
2013-09-16 00:45:00,60.6,58.6,29.78,South,175,1.0,4.0,93,0.00,,,0.00,Wunderground v.1.15,2013-09-16 07:45:00,
2013-09-16 00:55:00,60.8,58.5,29.78,SSE,149,2.0,4.0,92,0.00,,,0.00,Wunderground v.1.15,2013-09-16 07:55:00,
2013-09-16 01:05:00,60.7,58.4,29.78,NNW,340,1.0,3.0,92,0.00,,,0.00,Wunderground v.1.15,2013-09-16 08:05:00,
2013-09-16 01:15:00,60.7,58.4,29.79,SSW,195,1.0,2.0,92,0.00,,,0.00,Wunderground v.1.15,2013-09-16 08:15:00,
2013-09-16 01:25:00,60.8,58.5,29.80,SW,230,1.0,1.0,92,0.00,,,0.00,Wunderground v.1.15,2013-09-16 08:25:00,
2013-09-16 01:35:00,60.8,58.5,29.80,SW,214,1.0,3.0,92,0.00,,,0.00,Wunderground v.1.15,2013-09-16 08:35:00,
2013-09-16 01:40:00,60.8,58.5,29.80,SSE,162,1.0,6.0,92,0.00,,,0.00,Wunderground v.1.15,2013-09-16 08:40:00,
2013-09-16 01:45:00,60.8,58.5,29.80,SSW,195,1.0,6.0,92,0.00,,,0.00,Wunderground v.1.15,2013-09-16 08:45:00,
2013-09-16 01:55:00,60.7,58.4,29.80,SSE,165,1.0,6.0,92,0.00,,,0.00,Wunderground v.1.15,2013-09-16 08:55:00,
2013-09-16 02:05:00,60.5,58.2,29.80,SE,145,1.0,3.0,92,0.00,,,0.00,Wunderground v.1.15,2013-09-16 09:05:00,
2013-09-16 02:15:00,60.5,58.2,29.80,SSW,201,1.0,1.0,92,0.00,,,0.00,Wunderground v.1.15,2013-09-16 09:15:00,
2013-09-16 02:25:00,60.5,58.2,29.80,SSE,165,1.0,1.0,92,0.00,,,0.00,Wunderground v.1.15,2013-09-16 09:25:00,
2013-09-16 02:35:00,60.6,58.3,29.80,South,180,2.0,8.0,92,0.00,,,0.00,Wunderground v.1.15,2013-09-16 09:35:00,
2013-09-16 02:45:00,60.5,58.2,29.81,South,185,1.0,8.0,92,0.00,,,0.00,Wunderground v.1.15,2013-09-16 09:45:00,
2013-09-16 02:55:00,60.4,58.1,29.81,SSW,199,1.0,8.0,92,0.00,,,0.00,Wunderground v.1.15,2013-09-16 09:55:00,
2013-09-16 03:05:00,60.4,58.1,29.81,South,175,2.0,4.0,92,0.00,,,0.00,Wunderground v.1.15,2013-09-16 10:05:00,
2013-09-16 03:10:00,60.3,58.0,29.81,SSW,192,2.0,3.0,92,0.00,,,0.00,Wunderground v.1.15,2013-09-16 10:10:00,
2013-09-16 03:15:00,60.4,58.1,29.81,ESE,109,2.0,3.0,92,0.00,,,0.00,Wunderground v.1.15,2013-09-16 10:15:00,
2013-09-16 03:25:00,60.4,57.8,29.82,NW,308,2.0,4.0,91,0.00,,,0.00,Wunderground v.1.15,2013-09-16 10:25:00,
2013-09-16 03:35:00,60.2,57.9,29.81,SSW,205,2.0,7.0,92,0.00,,,0.00,Wunderground v.1.15,2013-09-16 10:35:00,
2013-09-16 03:45:00,60.1,57.8,29.82,SSW,205,2.0,7.0,92,0.00,,,0.00,Wunderground v.1.15,2013-09-16 10:45:00,
2013-09-16 03:55:00,60.0,57.4,29.82,South,175,2.0,4.0,91,0.00,,,0.00,Wunderground v.1.15,2013-09-16 10:55:00,
2013-09-16 04:00:00,60.1,57.5,29.82,SSW,203,2.0,2.0,91,0.00,,,0.00,Wunderground v.1.15,2013-09-16 11:00:00,
2013-09-16 04:05:00,60.0,57.4,29.82,SE,124,2.0,2.0,91,0.00,,,0.00,Wunderground v.1.15,2013-09-16 11:05:00,
2013-09-16 04:15:00,59.9,57.3,29.82,South,175,2.0,3.0,91,0.00,,,0.00,Wunderground v.1.15,2013-09-16 11:15:00,
2013-09-16 04:25:00,59.8,57.2,29.83,South,175,2.0,2.0,91,0.00,,,0.00,Wunderground v.1.15,2013-09-16 11:25:00,
2013-09-16 04:35:00,59.7,57.1,29.83,SW,225,2.0,8.0,91,0.00,,,0.00,Wunderground v.1.15,2013-09-16 11:35:00,
2013-09-16 04:45:00,59.5,57.2,29.83,South,170,1.0,5.0,92,0.00,,,0.00,Wunderground v.1.15,2013-09-16 11:45:00,
2013-09-16 04:55:00,59.4,57.1,29.83,South,185,2.0,8.0,92,0.00,,,0.00,Wunderground v.1.15,2013-09-16 11:55:00,
2013-09-16 05:05:00,59.3,57.0,29.83,ESE,119,1.0,2.0,92,0.00,,,0.00,Wunderground v.1.15,2013-09-16 12:05:00,
2013-09-16 05:15:00,59.3,57.0,29.83,SSE,165,1.0,1.0,92,0.00,,,0.00,Wunderground v.1.15,2013-09-16 12:15:00,
2013-09-16 05:25:00,59.3,57.0,29.84,South,185,0.0,1.0,92,0.00,,,0.00,Wunderground v.1.15,2013-09-16 12:25:00,
2013-09-16 05:35:00,59.3,57.0,29.84,SSW,199,0.0,2.0,92,0.00,,,0.00,Wunderground v.1.15,2013-09-16 12:35:00,
2013-09-16 05:45:00,59.3,57.0,29.84,ESE,107,0.0,9.0,92,0.00,,,0.00,Wunderground v.1.15,2013-09-16 12:45:00,
2013-09-16 05:55:00,59.4,57.1,29.84,NE,52,1.0,9.0,92,0.00,,,0.00,Wunderground v.1.15,2013-09-16 12:55:00,
2013-09-16 06:05:00,59.3,57.0,29.84,SSE,159,0.0,1.0,92,0.00,,,0.00,Wunderground v.1.15,2013-09-16 13:05:00,
2013-09-16 06:15:00,59.2,56.9,29.84,SE,126,1.0,2.0,92,0.00,,,0.00,Wunderground v.1.15,2013-09-16 13:15:00,
2013-09-16 06:25:00,59.3,57.3,29.84,SW,222,0.0,1.0,93,0.00,,,0.00,Wunderground v.1.15,2013-09-16 13:25:00,
2013-09-16 06:35:00,59.2,56.9,29.84,South,185,0.0,5.0,92,0.00,,,0.00,Wunderground v.1.15,2013-09-16 13:35:00,
2013-09-16 06:45:00,59.0,56.7,29.84,SSE,166,0.0,5.0,92,0.00,,,0.00,Wunderground v.1.15,2013-09-16 13:45:00,
2013-09-16 06:55:00,58.9,56.6,29.85,NW,320,0.0,5.0,92,0.00,,,0.00,Wunderground v.1.15,2013-09-16 13:55:00,
2013-09-16 07:00:00,58.9,56.6,29.85,NW,318,0.0,0.0,92,0.00,,,0.00,Wunderground v.1.15,2013-09-16 14:00:00,
2013-09-16 07:10:00,59.0,56.7,29.85,SSW,209,0.0,0.0,92,0.00,,,0.00,Wunderground v.1.15,2013-09-16 14:10:00,
2013-09-16 07:15:00,59.1,56.8,29.85,South,170,0.0,0.0,92,0.00,,,0.00,Wunderground v.1.15,2013-09-16 14:15:00,
2013-09-16 07:25:00,59.4,57.1,29.85,SSW,195,0.0,0.0,92,0.00,,,0.00,Wunderground v.1.15,2013-09-16 14:25:00,
2013-09-16 07:35:00,59.7,57.1,29.85,SW,215,0.0,1.0,91,0.00,,,0.00,Wunderground v.1.15,2013-09-16 14:35:00,
2013-09-16 07:45:00,59.9,57.3,29.85,South,180,0.0,4.0,91,0.00,,,0.00,Wunderground v.1.15,2013-09-16 14:45:00,
2013-09-16 07:55:00,60.3,57.4,29.86,SSW,201,0.0,4.0,90,0.00,,,0.00,Wunderground v.1.15,2013-09-16 14:55:00,
2013-09-16 08:05:00,60.5,57.6,29.86,South,175,0.0,0.0,90,0.00,,,0.00,Wunderground v.1.15,2013-09-16 15:05:00,
2013-09-16 08:15:00,60.8,57.5,29.86,South,185,0.0,1.0,89,0.00,,,0.00,Wunderground v.1.15,2013-09-16 15:15:00,
2013-09-16 08:25:00,61.1,57.8,29.86,SW,217,0.0,0.0,89,0.00,,,0.00,Wunderground v.1.15,2013-09-16 15:25:00,
2013-09-16 08:35:00,61.1,57.5,29.86,South,175,1.0,3.0,88,0.00,,,0.00,Wunderground v.1.15,2013-09-16 15:35:00,
2013-09-16 08:45:00,61.1,57.5,29.86,SSW,202,1.0,2.0,88,0.00,,,0.00,Wunderground v.1.15,2013-09-16 15:45:00,
2013-09-16 08:55:00,61.2,57.6,29.86,South,175,1.0,2.0,88,0.00,,,0.00,Wunderground v.1.15,2013-09-16 15:55:00,
2013-09-16 09:05:00,61.3,57.7,29.86,South,170,1.0,1.0,88,0.00,,,0.00,Wunderground v.1.15,2013-09-16 16:05:00,
2013-09-16 09:10:00,61.5,57.9,29.87,SSW,193,1.0,1.0,88,0.00,,,0.00,Wunderground v.1.15,2013-09-16 16:10:00,
2013-09-16 09:15:00,61.5,57.9,29.87,SSE,168,1.0,1.0,88,0.00,,,0.00,Wunderground v.1.15,2013-09-16 16:15:00,
2013-09-16 09:25:00,61.6,57.7,29.87,South,180,1.0,2.0,87,0.00,,,0.00,Wunderground v.1.15,2013-09-16 16:25:00,
2013-09-16 09:30:00,61.5,57.6,29.87,South,175,1.0,1.0,87,0.00,,,0.00,Wunderground v.1.15,2013-09-16 16:30:00,
2013-09-16 09:35:00,61.4,57.5,29.87,South,185,1.0,4.0,87,0.00,,,0.00,Wunderground v.1.15,2013-09-16 16:35:00,
2013-09-16 09:45:00,61.2,57.6,29.87,SSE,151,2.0,2.0,88,0.00,,,0.00,Wunderground v.1.15,2013-09-16 16:45:00,
2013-09-16 09:55:00,61.3,57.7,29.87,South,175,1.0,4.0,88,0.00,,,0.00,Wunderground v.1.15,2013-09-16 16:55:00,
2013-09-16 10:00:00,61.4,57.8,29.87,South,175,1.0,1.0,88,0.00,,,0.00,Wunderground v.1.15,2013-09-16 17:00:00,
2013-09-16 10:05:00,61.5,57.9,29.87,SSE,147,1.0,4.0,88,0.00,,,0.00,Wunderground v.1.15,2013-09-16 17:05:00,
2013-09-16 10:15:00,61.7,57.8,29.87,SSE,156,2.0,2.0,87,0.00,,,0.00,Wunderground v.1.15,2013-09-16 17:15:00,
2013-09-16 10:25:00,61.7,57.8,29.87,SSE,147,2.0,4.0,87,0.00,,,0.00,Wunderground v.1.15,2013-09-16 17:25:00,
2013-09-16 10:35:00,61.8,57.9,29.87,SSE,157,2.0,5.0,87,0.00,,,0.00,Wunderground v.1.15,2013-09-16 17:35:00,
2013-09-16 10:45:00,62.2,58.0,29.87,ESE,116,2.0,3.0,86,0.00,,,0.00,Wunderground v.1.15,2013-09-16 17:45:00,
2013-09-16 10:55:00,62.7,58.1,29.87,SSW,205,1.0,5.0,85,0.00,,,0.00,Wunderground v.1.15,2013-09-16 17:55:00,
2013-09-16 11:05:00,62.8,57.9,29.87,South,180,2.0,2.0,84,0.00,,,0.00,Wunderground v.1.15,2013-09-16 18:05:00,
2013-09-16 11:15:00,63.0,58.4,29.88,SSE,158,2.0,4.0,85,0.00,,,0.00,Wunderground v.1.15,2013-09-16 18:15:00,
2013-09-16 11:25:00,63.2,58.3,29.88,SSW,201,2.0,3.0,84,0.00,,,0.00,Wunderground v.1.15,2013-09-16 18:25:00,
2013-09-16 11:35:00,63.1,58.2,29.89,SE,131,2.0,7.0,84,0.00,,,0.00,Wunderground v.1.15,2013-09-16 18:35:00,
2013-09-16 11:45:00,62.9,58.3,29.89,SSW,199,2.0,7.0,85,0.00,,,0.00,Wunderground v.1.15,2013-09-16 18:45:00,
2013-09-16 11:55:00,62.9,58.3,29.89,SSW,192,2.0,7.0,85,0.00,,,0.00,Wunderground v.1.15,2013-09-16 18:55:00,
2013-09-16 12:00:00,62.9,58.0,29.89,SSW,195,1.0,2.0,84,0.00,,,0.00,Wunderground v.1.15,2013-09-16 19:00:00,
2013-09-16 12:10:00,62.8,57.9,29.90,SSE,167,1.0,2.0,84,0.00,,,0.00,Wunderground v.1.15,2013-09-16 19:10:00,
2013-09-16 12:15:00,62.7,57.8,29.89,WSW,241,1.0,3.0,84,0.00,,,0.00,Wunderground v.1.15,2013-09-16 19:15:00,
2013-09-16 12:25:00,62.8,58.2,29.90,SSW,207,1.0,2.0,85,0.00,,,0.00,Wunderground v.1.15,2013-09-16 19:25:00,
2013-09-16 12:35:00,63.2,58.6,29.90,SW,223,1.0,7.0,85,0.00,,,0.00,Wunderground v.1.15,2013-09-16 19:35:00,
2013-09-16 12:45:00,64.2,58.9,29.90,South,175,1.0,7.0,83,0.00,,,0.00,Wunderground v.1.15,2013-09-16 19:45:00,
2013-09-16 12:55:00,64.9,58.9,29.90,NE,42,1.0,4.0,81,0.00,,,0.00,Wunderground v.1.15,2013-09-16 19:55:00,
2013-09-16 13:05:00,64.9,58.9,29.90,SSW,207,1.0,1.0,81,0.00,,,0.00,Wunderground v.1.15,2013-09-16 20:05:00,
2013-09-16 13:15:00,64.9,58.9,29.90,South,185,1.0,3.0,81,0.00,,,0.00,Wunderground v.1.15,2013-09-16 20:15:00,
2013-09-16 13:25:00,65.1,58.8,29.90,SSW,198,1.0,2.0,80,0.00,,,0.00,Wunderground v.1.15,2013-09-16 20:25:00,
2013-09-16 13:35:00,65.6,59.3,29.89,SSE,160,1.0,5.0,80,0.00,,,0.00,Wunderground v.1.15,2013-09-16 20:35:00,
2013-09-16 13:45:00,66.0,58.9,29.89,SSW,210,1.0,5.0,78,0.00,,,0.00,Wunderground v.1.15,2013-09-16 20:45:00,
2013-09-16 13:55:00,66.4,59.3,29.89,SSE,149,1.0,2.0,78,0.00,,,0.00,Wunderground v.1.15,2013-09-16 20:55:00,
2013-09-16 14:05:00,66.8,59.4,29.89,SSW,193,1.0,1.0,77,0.00,,,0.00,Wunderground v.1.15,2013-09-16 21:05:00,
2013-09-16 14:10:00,67.0,59.5,29.89,South,175,0.0,0.0,77,0.00,,,0.00,Wunderground v.1.15,2013-09-16 21:10:00,
2013-09-16 14:15:00,67.1,59.6,29.89,South,180,0.0,0.0,77,0.00,,,0.00,Wunderground v.1.15,2013-09-16 21:15:00,
2013-09-16 14:25:00,68.0,59.8,29.89,SSW,192,0.0,1.0,75,0.00,,,0.00,Wunderground v.1.15,2013-09-16 21:25:00,
2013-09-16 14:35:00,68.3,59.7,29.89,SSW,199,0.0,2.0,74,0.00,,,0.00,Wunderground v.1.15,2013-09-16 21:35:00,
2013-09-16 14:45:00,68.0,59.4,29.88,SSW,204,0.0,5.0,74,0.00,,,0.00,Wunderground v.1.15,2013-09-16 21:45:00,
2013-09-16 14:55:00,68.2,59.2,29.88,South,175,0.0,5.0,73,0.00,,,0.00,Wunderground v.1.15,2013-09-16 21:55:00,
2013-09-16 15:05:00,68.0,59.4,29.88,SW,220,1.0,1.0,74,0.00,,,0.00,Wunderground v.1.15,2013-09-16 22:05:00,
2013-09-16 15:15:00,67.9,59.3,29.88,SSW,199,0.0,1.0,74,0.00,,,0.00,Wunderground v.1.15,2013-09-16 22:15:00,
2013-09-16 15:25:00,67.7,59.5,29.89,WNW,297,1.0,2.0,75,0.00,,,0.00,Wunderground v.1.15,2013-09-16 22:25:00,
2013-09-16 15:35:00,66.1,59.0,29.89,North,1,1.0,4.0,78,0.00,,,0.00,Wunderground v.1.15,2013-09-16 22:35:00,
2013-09-16 15:45:00,64.2,58.2,29.89,NW,314,3.0,3.0,81,0.00,,,0.00,Wunderground v.1.15,2013-09-16 22:45:00,
2013-09-16 15:55:00,63.7,57.4,29.89,WNW,297,3.0,4.0,80,0.00,,,0.00,Wunderground v.1.15,2013-09-16 22:55:00,
2013-09-16 16:05:00,63.3,57.7,29.89,NW,313,3.0,3.0,82,0.00,,,0.00,Wunderground v.1.15,2013-09-16 23:05:00,
2013-09-16 16:15:00,63.6,58.3,29.89,NNW,328,1.0,5.0,83,0.00,,,0.00,Wunderground v.1.15,2013-09-16 23:15:00,
2013-09-16 16:25:00,64.0,58.1,29.89,NNW,337,1.0,1.0,81,0.00,,,0.00,Wunderground v.1.15,2013-09-16 23:25:00,
2013-09-16 16:35:00,63.9,58.0,29.88,NNW,330,1.0,4.0,81,0.00,,,0.00,Wunderground v.1.15,2013-09-16 23:35:00,
2013-09-16 16:40:00,63.9,58.0,29.89,North,10,1.0,1.0,81,0.00,,,0.00,Wunderground v.1.15,2013-09-16 23:40:00,
2013-09-16 16:45:00,63.9,58.0,29.89,NNE,19,1.0,8.0,81,0.00,,,0.00,Wunderground v.1.15,2013-09-16 23:45:00,
2013-09-16 16:55:00,63.6,58.0,29.89,NE,47,1.0,8.0,82,0.00,,,0.00,Wunderground v.1.15,2013-09-16 23:55:00,
2013-09-16 17:00:00,63.3,57.7,29.89,North,351,1.0,2.0,82,0.00,,,0.00,Wunderground v.1.15,2013-09-17 00:00:00,
2013-09-16 17:10:00,63.0,57.8,29.89,NNE,15,1.0,1.0,83,0.00,,,0.00,Wunderground v.1.15,2013-09-17 00:10:00,
2013-09-16 17:15:00,62.8,57.6,29.89,North,353,1.0,8.0,83,0.00,,,0.00,Wunderground v.1.15,2013-09-17 00:15:00,
2013-09-16 17:25:00,62.3,57.4,29.88,NNE,17,1.0,1.0,84,0.00,,,0.00,Wunderground v.1.15,2013-09-17 00:25:00,
2013-09-16 17:35:00,62.1,57.5,29.89,NNE,21,1.0,12.0,85,0.00,,,0.00,Wunderground v.1.15,2013-09-17 00:35:00,
2013-09-16 17:45:00,62.0,57.4,29.89,North,4,1.0,12.0,85,0.00,,,0.00,Wunderground v.1.15,2013-09-17 00:45:00,
2013-09-16 17:55:00,61.7,57.1,29.89,NW,309,1.0,5.0,85,0.00,,,0.00,Wunderground v.1.15,2013-09-17 00:55:00,
2013-09-16 18:00:00,61.5,56.9,29.89,North,359,1.0,4.0,85,0.00,,,0.00,Wunderground v.1.15,2013-09-17 01:00:00,
2013-09-16 18:05:00,61.3,56.8,29.89,NNE,22,1.0,4.0,85,0.00,,,0.00,Wunderground v.1.15,2013-09-17 01:05:00,
2013-09-16 18:15:00,61.1,56.6,29.89,North,353,0.0,1.0,85,0.00,,,0.00,Wunderground v.1.15,2013-09-17 01:15:00,
2013-09-16 18:25:00,60.9,56.4,29.89,NNE,15,0.0,1.0,85,0.00,,,0.00,Wunderground v.1.15,2013-09-17 01:25:00,
2013-09-16 18:35:00,60.9,56.4,29.89,NE,41,0.0,8.0,85,0.00,,,0.00,Wunderground v.1.15,2013-09-17 01:35:00,
2013-09-16 18:40:00,60.9,56.4,29.89,NNW,330,0.0,8.0,85,0.00,,,0.00,Wunderground v.1.15,2013-09-17 01:40:00,
2013-09-16 18:45:00,60.9,56.0,29.89,NNE,14,0.0,8.0,84,0.00,,,0.00,Wunderground v.1.15,2013-09-17 01:45:00,
2013-09-16 18:55:00,60.8,56.3,29.90,North,6,0.0,8.0,85,0.00,,,0.00,Wunderground v.1.15,2013-09-17 01:55:00,
2013-09-16 19:05:00,60.7,56.8,29.90,North,11,0.0,0.0,87,0.00,,,0.00,Wunderground v.1.15,2013-09-17 02:05:00,
2013-09-16 19:15:00,60.4,56.8,29.90,NNE,16,0.0,0.0,88,0.00,,,0.00,Wunderground v.1.15,2013-09-17 02:15:00,
2013-09-16 19:25:00,60.0,56.7,29.90,NNE,15,0.0,0.0,89,0.00,,,0.00,Wunderground v.1.15,2013-09-17 02:25:00,
2013-09-16 19:35:00,59.7,56.8,29.90,NW,306,0.0,1.0,90,0.00,,,0.00,Wunderground v.1.15,2013-09-17 02:35:00,
2013-09-16 19:45:00,59.6,56.4,29.90,North,350,0.0,6.0,89,0.00,,,0.00,Wunderground v.1.15,2013-09-17 02:45:00,
2013-09-16 19:55:00,59.5,56.6,29.90,East,83,0.0,6.0,90,0.00,,,0.00,Wunderground v.1.15,2013-09-17 02:55:00,
2013-09-16 20:00:00,59.4,56.5,29.90,North,2,0.0,0.0,90,0.00,,,0.00,Wunderground v.1.15,2013-09-17 03:00:00,
2013-09-16 20:10:00,59.4,56.5,29.90,NNE,29,0.0,0.0,90,0.00,,,0.00,Wunderground v.1.15,2013-09-17 03:10:00,
2013-09-16 20:15:00,59.3,56.1,29.90,North,10,0.0,0.0,89,0.00,,,0.00,Wunderground v.1.15,2013-09-17 03:15:00,
2013-09-16 20:25:00,59.2,55.6,29.90,NNW,346,0.0,0.0,88,0.00,,,0.00,Wunderground v.1.15,2013-09-17 03:25:00,
2013-09-16 20:35:00,59.2,55.6,29.90,North,6,0.0,2.0,88,0.00,,,0.00,Wunderground v.1.15,2013-09-17 03:35:00,
2013-09-16 20:45:00,59.1,55.5,29.90,NNW,343,0.0,2.0,88,0.00,,,0.00,Wunderground v.1.15,2013-09-17 03:45:00,
2013-09-16 20:55:00,59.1,55.2,29.90,NE,39,0.0,2.0,87,0.00,,,0.00,Wunderground v.1.15,2013-09-17 03:55:00,
2013-09-16 21:00:00,59.1,54.9,29.90,NW,304,0.0,0.0,86,0.00,,,0.00,Wunderground v.1.15,2013-09-17 04:00:00,
2013-09-16 21:05:00,59.1,54.9,29.91,North,7,0.0,0.0,86,0.00,,,0.00,Wunderground v.1.15,2013-09-17 04:05:00,
2013-09-16 21:10:00,59.1,54.9,29.90,NW,310,0.0,1.0,86,0.00,,,0.00,Wunderground v.1.15,2013-09-17 04:10:00,
2013-09-16 21:15:00,59.1,54.9,29.91,North,8,0.0,1.0,86,0.00,,,0.00,Wunderground v.1.15,2013-09-17 04:15:00,
2013-09-16 21:25:00,59.2,55.3,29.90,NE,43,0.0,0.0,87,0.00,,,0.00,Wunderground v.1.15,2013-09-17 04:25:00,
2013-09-16 21:35:00,59.1,55.2,29.91,NNW,342,0.0,2.0,87,0.00,,,0.00,Wunderground v.1.15,2013-09-17 04:35:00,
2013-09-16 21:45:00,59.2,55.0,29.90,East,82,0.0,2.0,86,0.00,,,0.00,Wunderground v.1.15,2013-09-17 04:45:00,
2013-09-16 21:55:00,59.2,55.0,29.90,NNW,344,0.0,2.0,86,0.00,,,0.00,Wunderground v.1.15,2013-09-17 04:55:00,
2013-09-16 22:00:00,59.1,55.2,29.90,ENE,60,0.0,0.0,87,0.00,,,0.00,Wunderground v.1.15,2013-09-17 05:00:00,
2013-09-16 22:05:00,59.1,54.9,29.90,WSW,251,0.0,0.0,86,0.00,,,0.00,Wunderground v.1.15,2013-09-17 05:05:00,
2013-09-16 22:15:00,59.1,54.6,29.90,NNE,24,0.0,0.0,85,0.00,,,0.00,Wunderground v.1.15,2013-09-17 05:15:00,
2013-09-16 22:25:00,59.0,54.5,29.90,NNE,14,0.0,0.0,85,0.00,,,0.00,Wunderground v.1.15,2013-09-17 05:25:00,
2013-09-16 22:35:00,59.0,54.8,29.90,NNE,22,0.0,1.0,86,0.00,,,0.00,Wunderground v.1.15,2013-09-17 05:35:00,
2013-09-16 22:45:00,58.9,54.4,29.90,NNE,21,0.0,1.0,85,0.00,,,0.00,Wunderground v.1.15,2013-09-17 05:45:00,
2013-09-16 22:50:00,58.9,54.4,29.90,North,6,0.0,1.0,85,0.00,,,0.00,Wunderground v.1.15,2013-09-17 05:50:00,
2013-09-16 22:55:00,58.9,54.4,29.90,NNE,16,0.0,1.0,85,0.00,,,0.00,Wunderground v.1.15,2013-09-17 05:55:00,
2013-09-16 23:05:00,58.8,54.3,29.90,North,4,0.0,0.0,85,0.00,,,0.00,Wunderground v.1.15,2013-09-17 06:05:00,
2013-09-16 23:15:00,58.8,54.3,29.90,North,8,0.0,0.0,85,0.00,,,0.00,Wunderground v.1.15,2013-09-17 06:15:00,
2013-09-16 23:25:00,58.8,54.0,29.90,NNW,331,0.0,0.0,84,0.00,,,0.00,Wunderground v.1.15,2013-09-17 06:25:00,
2013-09-16 23:35:00,58.8,54.0,29.91,NNE,22,0.0,1.0,84,0.00,,,0.00,Wunderground v.1.15,2013-09-17 06:35:00,
2013-09-16 23:45:00,58.8,54.0,29.91,NE,34,0.0,1.0,84,0.00,,,0.00,Wunderground v.1.15,2013-09-17 06:45:00,
2013-09-16 23:55:00,58.7,53.9,29.90,NW,326,0.0,1.0,84,0.00,,,0.00,Wunderground v.1.15,2013-09-17 06:55:00,